Time,TemperatureF,DewpointF,PressureIn,WindDirection,WindDirectionDegrees,WindSpeedMPH,WindSpeedGustMPH,Humidity,HourlyPrecipIn,Conditions,Clouds,dailyrainin,SoftwareType,DateUTC
2013-03-02 00:02:00,48.0,27.0,30.29,NE,39,6.0,7.0,45,0.00,,,0.00,weatherlink.com 1.10,2013-03-02 06:02:00,
2013-03-02 00:17:00,48.3,28.0,30.30,NNE,27,5.0,7.0,46,0.00,,,0.00,weatherlink.com 1.10,2013-03-02 06:17:00,
2013-03-02 00:32:00,48.5,28.0,30.31,NNE,32,6.0,8.0,46,0.00,,,0.00,weatherlink.com 1.10,2013-03-02 06:32:00,
2013-03-02 00:47:00,48.2,29.0,30.31,NNE,16,6.0,9.0,47,0.00,,,0.00,weatherlink.com 1.10,2013-03-02 06:47:00,
2013-03-02 01:02:00,48.1,29.0,30.31,NNE,29,6.0,7.0,47,0.00,,,0.00,weatherlink.com 1.10,2013-03-02 07:02:00,
2013-03-02 01:17:00,48.0,28.0,30.30,NE,49,4.0,6.0,47,0.00,,,0.00,weatherlink.com 1.10,2013-03-02 07:17:00,
2013-03-02 01:32:00,47.6,29.0,30.31,NE,49,3.0,4.0,48,0.00,,,0.00,weatherlink.com 1.10,2013-03-02 07:32:00,
2013-03-02 01:47:00,46.5,28.0,30.31,NE,40,3.0,4.0,49,0.00,,,0.00,weatherlink.com 1.10,2013-03-02 07:47:00,
2013-03-02 02:02:00,45.7,28.0,30.32,NE,44,3.0,3.0,50,0.00,,,0.00,weatherlink.com 1.10,2013-03-02 08:02:00,
2013-03-02 02:17:00,45.3,28.0,30.31,ENE,58,2.0,3.0,52,0.00,,,0.00,weatherlink.com 1.10,2013-03-02 08:17:00,
2013-03-02 02:32:00,44.7,28.0,30.31,ENE,60,3.0,4.0,53,0.00,,,0.00,weatherlink.com 1.10,2013-03-02 08:32:00,
2013-03-02 02:47:00,44.8,28.0,30.31,NNE,32,2.0,4.0,53,0.00,,,0.00,weatherlink.com 1.10,2013-03-02 08:47:00,
2013-03-02 03:02:00,45.0,28.0,30.31,North,4,1.0,5.0,52,0.00,,,0.00,weatherlink.com 1.10,2013-03-02 09:02:00,
2013-03-02 03:17:00,44.8,28.0,30.31,NNW,340,1.0,4.0,53,0.00,,,0.00,weatherlink.com 1.10,2013-03-02 09:17:00,
2013-03-02 03:32:00,44.4,28.0,30.31,North,11,0.0,2.0,53,0.00,,,0.00,weatherlink.com 1.10,2013-03-02 09:32:00,
2013-03-02 03:47:00,43.0,28.0,30.32,NNW,327,1.0,1.0,56,0.00,,,0.00,weatherlink.com 1.10,2013-03-02 09:47:00,
2013-03-02 04:02:00,42.2,28.0,30.32,NW,323,0.0,1.0,57,0.00,,,0.00,weatherlink.com 1.10,2013-03-02 10:02:00,
2013-03-02 04:17:00,42.0,28.0,30.32,NNW,338,1.0,2.0,58,0.00,,,0.00,weatherlink.com 1.10,2013-03-02 10:17:00,
2013-03-02 04:32:00,42.4,29.0,30.32,NNW,348,2.0,4.0,59,0.00,,,0.00,weatherlink.com 1.10,2013-03-02 10:32:00,
2013-03-02 04:47:00,42.8,29.0,30.33,NW,326,2.0,5.0,58,0.00,,,0.00,weatherlink.com 1.10,2013-03-02 10:47:00,
2013-03-02 05:02:00,42.0,28.0,30.34,NNW,343,1.0,3.0,58,0.00,,,0.00,weatherlink.com 1.10,2013-03-02 11:02:00,
2013-03-02 05:17:00,42.4,28.0,30.34,NNW,341,2.0,4.0,58,0.00,,,0.00,weatherlink.com 1.10,2013-03-02 11:17:00,
2013-03-02 05:32:00,42.2,28.0,30.34,NNW,330,0.0,2.0,57,0.00,,,0.00,weatherlink.com 1.10,2013-03-02 11:32:00,
2013-03-02 05:48:00,41.2,28.0,30.35,NNW,330,0.0,1.0,59,0.00,,,0.00,weatherlink.com 1.10,2013-03-02 11:48:00,
2013-03-02 06:03:00,40.1,28.0,30.36,WNW,302,0.0,1.0,62,0.00,,,0.00,weatherlink.com 1.10,2013-03-02 12:03:00,
2013-03-02 06:18:00,40.5,28.0,30.37,WNW,285,0.0,1.0,61,0.00,,,0.00,weatherlink.com 1.10,2013-03-02 12:18:00,
2013-03-02 06:33:00,40.5,28.0,30.38,NNW,340,1.0,3.0,61,0.00,,,0.00,weatherlink.com 1.10,2013-03-02 12:33:00,
2013-03-02 06:48:00,40.8,28.0,30.38,NNW,346,0.0,2.0,60,0.00,,,0.00,weatherlink.com 1.10,2013-03-02 12:48:00,
2013-03-02 07:03:00,40.7,28.0,30.39,NNW,344,0.0,1.0,60,0.00,,,0.00,weatherlink.com 1.10,2013-03-02 13:03:00,
2013-03-02 07:18:00,41.2,28.0,30.40,NNW,343,0.0,1.0,59,0.00,,,0.00,weatherlink.com 1.10,2013-03-02 13:18:00,
2013-03-02 07:33:00,42.4,28.0,30.40,NNW,329,1.0,2.0,57,0.00,,,0.00,weatherlink.com 1.10,2013-03-02 13:33:00,
2013-03-02 07:48:00,43.9,28.0,30.41,NNE,12,1.0,3.0,55,0.00,,,0.00,weatherlink.com 1.10,2013-03-02 13:48:00,
2013-03-02 08:03:00,45.5,29.0,30.42,NNE,23,6.0,6.0,53,0.00,,,0.00,weatherlink.com 1.10,2013-03-02 14:03:00,
2013-03-02 08:18:00,47.3,30.0,30.42,North,1,4.0,7.0,52,0.00,,,0.00,weatherlink.com 1.10,2013-03-02 14:18:00,
2013-03-02 08:33:00,48.9,30.0,30.43,North,356,10.0,13.0,49,0.00,,,0.00,weatherlink.com 1.10,2013-03-02 14:33:00,
2013-03-02 08:48:00,49.5,30.0,30.43,NNE,20,8.0,12.0,48,0.00,,,0.00,weatherlink.com 1.10,2013-03-02 14:48:00,
2013-03-02 09:03:00,50.3,31.0,30.43,NNE,18,8.0,14.0,48,0.00,,,0.00,weatherlink.com 1.10,2013-03-02 15:03:00,
2013-03-02 09:18:00,50.8,31.0,30.43,NNE,18,11.0,14.0,46,0.00,,,0.00,weatherlink.com 1.10,2013-03-02 15:18:00,
2013-03-02 09:33:00,51.2,30.0,30.44,North,356,7.0,16.0,45,0.00,,,0.00,weatherlink.com 1.10,2013-03-02 15:33:00,
2013-03-02 09:49:00,51.7,30.0,30.43,NNW,331,6.0,17.0,44,0.00,,,0.00,weatherlink.com 1.10,2013-03-02 15:49:00,
2013-03-02 10:03:00,52.5,30.0,30.43,NE,41,7.0,12.0,43,0.00,,,0.00,weatherlink.com 1.10,2013-03-02 16:03:00,
2013-03-02 10:18:00,53.5,30.0,30.43,NNE,25,9.0,11.0,41,0.00,,,0.00,weatherlink.com 1.10,2013-03-02 16:18:00,
2013-03-02 10:33:00,53.7,28.0,30.43,NE,41,10.0,15.0,38,0.00,,,0.00,weatherlink.com 1.10,2013-03-02 16:33:00,
2013-03-02 10:48:00,55.1,28.0,30.43,North,360,4.0,12.0,36,0.00,,,0.00,weatherlink.com 1.10,2013-03-02 16:48:00,
2013-03-02 11:03:00,55.9,28.0,30.43,North,356,8.0,15.0,35,0.00,,,0.00,weatherlink.com 1.10,2013-03-02 17:03:00,
2013-03-02 11:18:00,56.8,29.0,30.42,NNW,338,4.0,12.0,35,0.00,,,0.00,weatherlink.com 1.10,2013-03-02 17:18:00,
2013-03-02 11:33:00,57.2,28.0,30.42,NNW,330,3.0,13.0,33,0.00,,,0.00,weatherlink.com 1.10,2013-03-02 17:33:00,
2013-03-02 11:48:00,58.4,28.0,30.41,NNE,24,12.0,17.0,31,0.00,,,0.00,weatherlink.com 1.10,2013-03-02 17:48:00,
2013-03-02 12:03:00,59.2,28.0,30.41,NNE,12,5.0,14.0,31,0.00,,,0.00,weatherlink.com 1.10,2013-03-02 18:03:00,
2013-03-02 12:18:00,59.4,28.0,30.39,NNW,340,6.0,13.0,30,0.00,,,0.00,weatherlink.com 1.10,2013-03-02 18:18:00,
2013-03-02 12:34:00,60.0,27.0,30.38,WNW,294,4.0,14.0,29,0.00,,,0.00,weatherlink.com 1.10,2013-03-02 18:34:00,
2013-03-02 12:49:00,61.3,27.0,30.37,NW,305,10.0,14.0,27,0.00,,,0.00,weatherlink.com 1.10,2013-03-02 18:49:00,
2013-03-02 13:04:00,62.1,26.0,30.36,NNW,347,8.0,14.0,25,0.00,,,0.00,weatherlink.com 1.10,2013-03-02 19:04:00,
2013-03-02 13:19:00,62.3,27.0,30.34,NNW,340,9.0,15.0,26,0.00,,,0.00,weatherlink.com 1.10,2013-03-02 19:19:00,
2013-03-02 13:34:00,63.3,26.0,30.34,WNW,294,7.0,17.0,24,0.00,,,0.00,weatherlink.com 1.10,2013-03-02 19:34:00,
2013-03-02 13:49:00,63.9,27.0,30.33,North,353,12.0,14.0,25,0.00,,,0.00,weatherlink.com 1.10,2013-03-02 19:49:00,
2013-03-02 14:04:00,64.4,27.0,30.32,NW,309,6.0,14.0,24,0.00,,,0.00,weatherlink.com 1.10,2013-03-02 20:04:00,
2013-03-02 14:19:00,65.2,27.0,30.31,NNE,22,6.0,13.0,24,0.00,,,0.00,weatherlink.com 1.10,2013-03-02 20:19:00,
2013-03-02 14:34:00,64.6,28.0,30.30,North,4,10.0,16.0,25,0.00,,,0.00,weatherlink.com 1.10,2013-03-02 20:34:00,
2013-03-02 14:49:00,65.6,28.0,30.30,WNW,285,1.0,13.0,24,0.00,,,0.00,weatherlink.com 1.10,2013-03-02 20:49:00,
2013-03-02 15:04:00,66.1,28.0,30.30,NW,308,8.0,13.0,24,0.00,,,0.00,weatherlink.com 1.10,2013-03-02 21:04:00,
2013-03-02 15:19:00,66.1,28.0,30.29,NW,304,7.0,12.0,24,0.00,,,0.00,weatherlink.com 1.10,2013-03-02 21:19:00,
2013-03-02 15:34:00,66.4,28.0,30.28,NNW,328,9.0,14.0,24,0.00,,,0.00,weatherlink.com 1.10,2013-03-02 21:34:00,
2013-03-02 15:49:00,66.3,28.0,30.28,NNW,334,5.0,17.0,24,0.00,,,0.00,weatherlink.com 1.10,2013-03-02 21:49:00,
2013-03-02 16:04:00,66.7,30.0,30.27,NNW,336,2.0,13.0,25,0.00,,,0.00,weatherlink.com 1.10,2013-03-02 22:04:00,
2013-03-02 16:19:00,66.4,28.0,30.26,NE,44,14.0,17.0,24,0.00,,,0.00,weatherlink.com 1.10,2013-03-02 22:19:00,
2013-03-02 16:34:00,66.3,28.0,30.26,NE,44,7.0,14.0,24,0.00,,,0.00,weatherlink.com 1.10,2013-03-02 22:34:00,
2013-03-02 16:49:00,66.4,29.0,30.26,NNE,32,8.0,12.0,25,0.00,,,0.00,weatherlink.com 1.10,2013-03-02 22:49:00,
2013-03-02 17:04:00,66.5,30.0,30.26,NW,316,2.0,9.0,25,0.00,,,0.00,weatherlink.com 1.10,2013-03-02 23:04:00,
2013-03-02 17:19:00,66.3,29.0,30.26,North,360,6.0,13.0,25,0.00,,,0.00,weatherlink.com 1.10,2013-03-02 23:19:00,
2013-03-02 17:34:00,65.8,30.0,30.26,NNW,332,4.0,11.0,26,0.00,,,0.00,weatherlink.com 1.10,2013-03-02 23:34:00,
2013-03-02 17:49:00,65.4,29.0,30.26,NNE,31,7.0,8.0,26,0.00,,,0.00,weatherlink.com 1.10,2013-03-02 23:49:00,
2013-03-02 18:04:00,65.0,30.0,30.27,NNE,19,4.0,10.0,27,0.00,,,0.00,weatherlink.com 1.10,2013-03-03 00:04:00,
2013-03-02 18:19:00,63.8,30.0,30.26,NE,39,5.0,8.0,28,0.00,,,0.00,weatherlink.com 1.10,2013-03-03 00:19:00,
2013-03-02 18:34:00,62.0,29.0,30.26,NE,43,2.0,5.0,29,0.00,,,0.00,weatherlink.com 1.10,2013-03-03 00:34:00,
2013-03-02 18:49:00,60.5,30.0,30.27,NE,41,3.0,3.0,31,0.00,,,0.00,weatherlink.com 1.10,2013-03-03 00:49:00,
2013-03-02 19:04:00,59.5,29.0,30.27,ENE,69,1.0,2.0,32,0.00,,,0.00,weatherlink.com 1.10,2013-03-03 01:04:00,
2013-03-02 19:19:00,58.1,29.0,30.27,ESE,121,0.0,1.0,33,0.00,,,0.00,weatherlink.com 1.10,2013-03-03 01:19:00,
2013-03-02 19:34:00,56.6,29.0,30.27,SE,136,0.0,2.0,35,0.00,,,0.00,weatherlink.com 1.10,2013-03-03 01:34:00,
2013-03-02 19:49:00,56.0,29.0,30.27,ESE,117,0.0,1.0,36,0.00,,,0.00,weatherlink.com 1.10,2013-03-03 01:49:00,
2013-03-02 20:04:00,55.5,29.0,30.27,ESE,114,0.0,2.0,36,0.00,,,0.00,weatherlink.com 1.10,2013-03-03 02:04:00,
2013-03-02 20:19:00,54.6,29.0,30.27,ESE,113,0.0,1.0,37,0.00,,,0.00,weatherlink.com 1.10,2013-03-03 02:19:00,
2013-03-02 20:34:00,54.0,29.0,30.27,East,101,0.0,1.0,38,0.00,,,0.00,weatherlink.com 1.10,2013-03-03 02:34:00,
2013-03-02 20:49:00,52.3,28.0,30.28,East,84,1.0,1.0,40,0.00,,,0.00,weatherlink.com 1.10,2013-03-03 02:49:00,
2013-03-02 21:04:00,51.3,29.0,30.28,ESE,118,0.0,1.0,42,0.00,,,0.00,weatherlink.com 1.10,2013-03-03 03:04:00,
2013-03-02 21:19:00,51.6,28.0,30.29,East,99,0.0,1.0,41,0.00,,,0.00,weatherlink.com 1.10,2013-03-03 03:19:00,
2013-03-02 21:34:00,50.1,28.0,30.29,East,99,0.0,1.0,43,0.00,,,0.00,weatherlink.com 1.10,2013-03-03 03:34:00,
2013-03-02 21:49:00,51.0,28.0,30.29,East,98,1.0,1.0,42,0.00,,,0.00,weatherlink.com 1.10,2013-03-03 03:49:00,
2013-03-02 22:04:00,51.3,28.0,30.29,East,96,4.0,4.0,41,0.00,,,0.00,weatherlink.com 1.10,2013-03-03 04:04:00,
2013-03-02 22:19:00,51.6,28.0,30.29,SE,134,2.0,3.0,40,0.00,,,0.00,weatherlink.com 1.10,2013-03-03 04:19:00,
2013-03-02 22:34:00,51.8,28.0,30.29,East,99,0.0,3.0,40,0.00,,,0.00,weatherlink.com 1.10,2013-03-03 04:34:00,
2013-03-02 22:49:00,51.7,27.0,30.29,SSE,148,2.0,5.0,39,0.00,,,0.00,weatherlink.com 1.10,2013-03-03 04:49:00,
2013-03-02 23:04:00,52.0,27.0,30.28,SE,143,3.0,6.0,38,0.00,,,0.00,weatherlink.com 1.10,2013-03-03 05:04:00,
2013-03-02 23:19:00,51.9,27.0,30.28,SE,131,4.0,7.0,38,0.00,,,0.00,weatherlink.com 1.10,2013-03-03 05:19:00,
2013-03-02 23:34:00,51.8,27.0,30.28,SSE,160,3.0,7.0,38,0.00,,,0.00,weatherlink.com 1.10,2013-03-03 05:34:00,
2013-03-02 23:49:00,51.5,26.0,30.27,SE,131,4.0,8.0,38,0.00,,,0.00,weatherlink.com 1.10,2013-03-03 05:49:00,